This demonstration page uses our WeatherBlox Daily Observations layout. Learn more.

Hourly Observations for December 11, 2018

Temp ( °F °C ) Dew Point ( °F °C ) Humidity (%) Winds ( mph kmh ) Pressure ( in mb ) Visibility ( mi km ) Precip ( " mm )
12:15 am 00:15 Clear 30 -1.2 21 -6.3 69 69 SW 8 13 30.15 1021 10 16.0934 0 0
12:35 am 00:35 Clear 30 -1 21 -6.1 69 69 SW 9 15 30.15 1021 10 16.0934 0 0
12:55 am 00:55 Clear 29 -1.5 21 -6.3 70 70 SW 9 15 30.15 1021 10 16.0934 0 0
1:15 am 01:15 Clear 31 -0.7 22 -5.8 69 69 SW 10 17 30.15 1021 10 16.0934 0 0
1:35 am 01:35 Clear 32 0 21 -5.9 65 65 SW 10 17 30.12 1020 10 16.0934 0 0
1:55 am 01:55 Clear 32 0 21 -6 64 64 SW 12 19 30.09 1019 10 16.0934 0 0
2:15 am 02:15 Clear 32 -0.1 21 -6.1 64 64 SW 12 19 30.09 1019 10 16.0934 0 0
2:35 am 02:35 Clear 32 -0.1 21 -6 65 65 SW 9 15 30.09 1019 10 16.0934 0 0
2:55 am 02:55 Clear 31 -0.3 21 -6 66 66 SW 9 15 30.09 1019 10 16.0934 0 0
3:15 am 03:15 Clear 31 -0.8 21 -6.1 68 68 SW 12 19 30.12 1020 10 16.0934 0 0
3:35 am 03:35 Clear 30 -1 21 -6.2 68 68 SSW 10 17 30.12 1020 10 16.0934 0 0
3:55 am 03:55 Clear 29 -1.5 20 -6.5 69 69 SSW 12 19 30.09 1019 10 16.0934 0 0
4:15 am 04:15 Clear 28 -2.2 20 -6.6 72 72 SW 7 11 30.09 1019 10 16.0934 0 0
4:35 am 04:35 Clear 28 -2.1 20 -6.6 72 72 SSW 9 15 30.09 1019 10 16.0934 0 0
4:55 am 04:55 Clear 26 -3.2 19 -7.1 75 75 Calm 30.09 1019 10 16.0934 0 0
5:15 am 05:15 Clear 27 -3 19 -7 74 74 SSW 9 15 30.09 1019 10 16.0934 0 0
5:35 am 05:35 Clear 25 -3.7 19 -7.3 76 76 SSW 5 7 30.06 1018 10 16.0934 0 0
5:55 am 05:55 Clear 26 -3.5 19 -7 77 77 SSW 8 13 30.06 1018 10 16.0934 0 0
6:15 am 06:15 Clear 22 -5.3 18 -8 82 82 W 3 6 30.09 1019 10 16.0934 0 0
6:35 am 06:35 Clear 22 -5.6 17 -8.2 82 82 Calm 30.09 1019 10 16.0934 0 0
6:55 am 06:55 Clear 20 -6.7 17 -8.6 87 87 WSW 3 6 30.15 1021 10 16.0934 0 0
7:15 am 07:15 Clear 23 -5.2 19 -7.2 86 86 SW 3 6 30.09 1019 10 16.0934 0 0
7:35 am 07:35 Clear 23 -5.1 18 -7.6 83 83 Calm 30.09 1019 10 16.0934 0 0
7:55 am 07:55 Sunny 22 -5.8 17 -8.1 84 84 Calm 30.09 1019 10 16.0934 0 0
8:15 am 08:15 Sunny 18 -7.8 15 -9.5 88 88 WNW 3 6 30.12 1020 10 16.0934 0 0
8:35 am 08:35 Sunny 19 -7.3 16 -8.8 89 89 W 3 6 30.12 1020 10 16.0934 0 0
8:55 am 08:55 Sunny 20 -6.4 17 -8.3 87 87 Calm 30.09 1019 10 16.0934 0 0
9:15 am 09:15 Sunny 21 -6.1 17 -8.4 84 84 WNW 3 6 30.09 1019 10 16.0934 0 0
9:35 am 09:35 Sunny 25 -3.7 19 -7.3 76 76 Calm 30.06 1018 10 16.0934 0 0
9:55 am 09:55 Sunny 25 -3.9 19 -7.2 78 78 NNW 6 9 30.06 1018 10 16.0934 0 0
10:15 am 10:15 Sunny 25 -4 19 -7.2 79 79 NW 8 13 30.06 1018 10 16.0934 0 0
10:35 am 10:35 Sunny 26 -3.6 19 -7 78 78 NNW 5 7 30.03 1017 10 16.0934 0 0
10:55 am 10:55 Sunny 27 -2.8 20 -6.5 76 76 NNW 5 7 30.03 1017 10 16.0934 0 0
11:15 am 11:15 Sunny 28 -2.2 20 -6.4 73 73 NNW 5 7 30.03 1017 10 16.0934 0 0
11:35 am 11:35 Sunny 29 -1.9 21 -6.1 73 73 N 5 7 30 1016 10 16.0934 0 0
11:55 am 11:55 Sunny 30 -1.2 23 -5.2 75 75 WNW 5 7 30 1016 10 16.0934 0 0
12:15 pm 12:15 Sunny 31 -0.7 23 -5.2 72 72 NW 8 13 29.97 1015 10 16.0934 0 0
12:35 pm 12:35 Sunny 31 -0.6 24 -4.3 76 76 W 7 11 29.97 1015 10 16.0934 0 0
12:55 pm 12:55 Sunny 32 0 26 -3.6 77 77 WNW 13 20 30 1016 10 16.0934 0 0
1:15 pm 13:15 Sunny 33 0.7 27 -3 77 77 NW 9 15 29.97 1015 10 16.0934 0 0
1:35 pm 13:35 Sunny 35 1.4 28 -2.5 76 76 NNW 8 13 29.97 1015 10 16.0934 0 0
1:55 pm 13:55 Sunny 35 1.8 28 -2.4 74 74 NNW 8 13 29.94 1014 10 16.0934 0 0
2:15 pm 14:15 Sunny 36 2 28 -2 75 75 NW 6 9 29.91 1013 10 16.0934 0 0
2:35 pm 14:35 Sunny 36 2.2 28 -2.2 73 73 WNW 8 13 29.94 1014 10 16.0934 0 0
2:55 pm 14:55 Sunny 36 2.2 29 -1.8 75 75 WNW 8 13 29.94 1014 10 16.0934 0 0
3:15 pm 15:15 Sunny 36 2.4 29 -1.7 75 75 WNW 8 13 29.94 1014 10 16.0934 0 0
3:35 pm 15:35 Sunny 37 3 29 -1.6 72 72 WNW 5 7 29.94 1014 10 16.0934 0 0
3:55 pm 15:55 Sunny 37 3 29 -1.7 72 72 WNW 7 11 29.94 1014 10 16.0934 0 0
4:15 pm 16:15 Sunny 37 3 29 -1.5 73 73 NW 12 19 29.97 1015 10 16.0934 0 0
4:35 pm 16:35 Sunny 37 3 29 -1.5 73 73 NW 14 22 29.97 1015 10 16.0934 0 0
4:55 pm 16:55 Sunny 37 2.8 28 -2.5 68 68 NW 15 24 29.97 1015 10 16.0934 0 0
5:15 pm 17:15 Clear 36 2 28 -2.3 73 73 NNW 15 24 29.97 1015 10 16.0934 0 0
5:35 pm 17:35 Clear 35 1.5 28 -2.1 77 77 NNW 13 20 30 1016 10 16.0934 0 0
5:55 pm 17:55 Clear 33 0.6 28 -2.2 82 82 NW 7 11 30.03 1017 10 16.0934 0 0
6:15 pm 18:15 Clear 32 -0.2 28 -2.3 86 86 NW 9 15 30.03 1017 10 16.0934 0 0
6:35 pm 18:35 Clear 31 -0.5 28 -2.5 87 87 NW 7 11 30.03 1017 10 16.0934 0 0
6:55 pm 18:55 Clear 30 -1.3 27 -2.8 90 90 WNW 8 13 30.06 1018 10 16.0934 0 0
7:15 pm 19:15 Clear 31 -0.6 28 -2.5 87 87 WNW 8 13 30.03 1017 10 16.0934 0 0
7:35 pm 19:35 Clear 30 -1 27 -2.8 88 88 W 9 15 30.06 1018 10 16.0934 0 0
7:55 pm 19:55 Clear 31 -0.5 28 -2.2 88 88 W 8 13 30.03 1017 10 16.0934 0 0
8:15 pm 20:15 Clear 32 -0.2 28 -2.1 87 87 WNW 9 15 30.03 1017 10 16.0934 0 0
8:35 pm 20:35 Clear 30 -0.9 28 -2.4 90 90 WNW 7 11 30.03 1017 10 16.0934 0 0
8:55 pm 20:55 Clear 30 -1.2 28 -2.4 92 92 NW 7 11 30.06 1018 10 16.0934 0 0
9:15 pm 21:15 Clear 26 -3.4 25 -4 96 96 NW 7 11 30.06 1018 10 16.0934 0 0
9:35 pm 21:35 Clear 30 -1.2 29 -1.9 95 95 NNW 8 13 30 1016 10 16.0934 0 0
9:55 pm 21:55 Clear 28 -2.2 26 -3.2 93 93 W 8 13 30.06 1018 10 16.0934 0 0
10:15 pm 22:15 Clear 28 -2.2 27 -3 94 94 W 7 11 30.06 1018 10 16.0934 0 0
10:35 pm 22:35 Clear 29 -1.7 28 -2.3 96 96 W 8 13 30.03 1017 10 16.0934 0 0
10:55 pm 22:55 Clear 31 -0.8 28 -2.1 91 91 W 7 11 30 1016 10 16.0934 0 0
11:15 pm 23:15 Clear 29 -1.5 27 -2.6 92 92 W 7 11 30.03 1017 10 16.0934 0 0
11:35 pm 23:35 Clear 28 -2.5 26 -3.2 95 95 W 9 15 30.03 1017 10 16.0934 0 0
11:55 pm 23:55 Clear 28 -2 27 -2.9 94 94 W 9 15 30.03 1017 10 16.0934 0 0

Powered by AerisWeather